Location: *
(37.5724°S, 58.0067°E)
Time: 10:17:49
(UTC+00:00)

USA 229 DEB - Pass Details

Date: 03 December 2021
Orbit: 943 x 1269 km, 63.4° (Epoch: 14 January)

Event Time Altitude Azimuth Distance (km) Brightness Sun altitude
Rises 23:26:14 0° 206° (SSW) 3,949 6.9 -12.7°
Reaches altitude 10° 23:30:53 10° 179° (S) 2,907 6.6 -12.0°
Maximum altitude 23:33:54 13° 152° (SSE) 2,630 6.9 -11.6°
Drops below altitude 10° 23:36:49 10° 125° (SE) 2,806 7.5 -11.1°
Sets 23:41:07 0° 98° (E) 3,691 7.6 -10.5°
